Regional Weather Roundup
Issued by NWS

Home | Current Version | Previous Version | Text Only | Print | Product List | Glossary Off
Versions: 1 2 3 4 5 6 7 8 9 10 11 12 13 14 15 16 17 18 19 20 21 22 23 24 25 26 27 28 29 30 31 32 33 34 35 36 37 38 39 40 41 42 43 44 45 46 47 48 49 50

000
ASUS43 KLMK 182302
RWRKY
KENTUCKY REGIONAL WEATHER ROUNDUP
NATIONAL WEATHER SERVICE LOUISVILLE KY
600 PM EST THU DEC 18 2014

NOTE "FAIR" INDICATES FEW OR NO CLOUDS BELOW 12,000 FEET
WITH NO SIGNIFICANT WEATHER AND/OR OBSTRUCTIONS TO VISIBILITY.

KYZ001>023-026-027-061>063-070>075-190000-
WESTERN AND SOUTH CENTRAL KENTUCKY

CITY           SKY/WX    TMP DP  RH WIND       PRES   REMARKS
PADUCAH        CLOUDY    36  31  82 NE3       30.21F
HENDERSON      CLOUDY    34  25  69 CALM      30.24S
OWENSBORO      CLOUDY    34  27  76 VRB3      30.24F
HOPKINSVILLE   CLOUDY    35  29  80 NE3       30.22S
BOWLING GREEN  CLOUDY    35  26  69 CALM      30.22S
GLASGOW        NOT AVBL
$$

KYZ024-025-028>034-038-045-046-053-190000-
NORTH CENTRAL KENTUCKY

CITY           SKY/WX    TMP DP  RH WIND       PRES   REMARKS
LOUISVILLE/SDF CLOUDY    33  24  69 N5        30.23S WCI  29
LOUISVILLE/LOU CLOUDY    32  23  69 NW3       30.23F
FORT KNOX      CLOUDY    32  25  74 NW3       30.20S
$$

KYZ035>037-039>044-047>052-055>060-089>105-190000-
NORTHEAST KENTUCKY

CITY           SKY/WX    TMP DP  RH WIND       PRES   REMARKS
LEXINGTON      CLOUDY    31  24  75 CALM      30.20S
COVINGTON      CLOUDY    29  19  66 CALM      30.21S
FRANKFORT      CLOUDY    31  23  72 CALM      30.21R
$$

KYZ054-064>069-076>088-106>120-190000-
SOUTHEAST KENTUCKY

CITY           SKY/WX    TMP DP  RH WIND       PRES   REMARKS
JACKSON        CLOUDY    33  24  69 CALM      30.16S
LONDON         CLOUDY    36  25  64 W3        30.18R
SOMERSET       NOT AVBL
MIDDLESBORO    NOT AVBL
MONTICELLO     CLOUDY    36  29  76 CALM      30.22F
$$



USA.gov is the U.S. government's official web portal to all federal, state and local government web resources and services.